RPA5667 KDCA-KBOS

Flight info

Callsign RPA5667
Flight time 1h 1m
Altitude 37000
Route SOOKI6 SWANN BROSS Q419 JFK ROBUC3
Aircraft E75S/M-SDE3GILORVW/S

Departure

Time 2026-05-08 01:37
Airport Ronald Reagan Washington National Airport (KDCA)

Arrival

Time 2026-05-08 02:39
Airport Boston Logan International Airport (KBOS)
Time Latitude Longitude Altitude Speed Heading
2026-05-08 01:11 38.85260 -77.04077 21 ft 0 kts 224°
2026-05-08 01:26 38.85268 -77.04067 20 ft 2 kts 224°
2026-05-08 01:26 38.85279 -77.04054 20 ft 2 kts 224°
2026-05-08 01:27 38.85289 -77.04041 20 ft 2 kts 225°
2026-05-08 01:27 38.85297 -77.04024 21 ft 2 kts 263°
2026-05-08 01:27 38.85294 -77.04005 21 ft 2 kts 298°
2026-05-08 01:27 38.85284 -77.03992 21 ft 2 kts 334°
2026-05-08 01:28 38.85273 -77.03989 20 ft 0 kts 355°
2026-05-08 01:31 38.85279 -77.03989 20 ft 1 kts 355°
2026-05-08 01:32 38.85289 -77.03990 21 ft 0 kts 355°
2026-05-08 01:32 38.85302 -77.03991 20 ft 4 kts 355°
2026-05-08 01:32 38.85354 -77.03996 20 ft 10 kts 355°
2026-05-08 01:33 38.85443 -77.04005 21 ft 14 kts 355°
2026-05-08 01:33 38.85558 -77.04031 20 ft 17 kts 351°
2026-05-08 01:33 38.85686 -77.04063 20 ft 19 kts 327°
2026-05-08 01:33 38.85801 -77.04176 20 ft 21 kts 322°
2026-05-08 01:34 38.85925 -77.04299 20 ft 22 kts 322°
2026-05-08 01:34 38.85999 -77.04388 20 ft 11 kts 290°
2026-05-08 01:34 38.86037 -77.04444 20 ft 0 kts 20°
2026-05-08 01:36 38.86044 -77.04439 20 ft 2 kts 40°
2026-05-08 01:36 38.86061 -77.04411 20 ft 6 kts 56°
2026-05-08 01:36 38.86091 -77.04353 20 ft 8 kts 64°
2026-05-08 01:36 38.86069 -77.04282 20 ft 12 kts 141°
2026-05-08 01:37 38.85834 -77.04054 21 ft 81 kts 142°
2026-05-08 01:37 38.85181 -77.03422 33 ft 147 kts 145°
2026-05-08 01:37 38.84272 -77.02702 647 ft 159 kts 161°
2026-05-08 01:37 38.83234 -77.02573 1486 ft 152 kts 189°
2026-05-08 01:38 38.82100 -77.02729 2001 ft 174 kts 186°
2026-05-08 01:38 38.80784 -77.02796 2405 ft 201 kts 182°
2026-05-08 01:38 38.79303 -77.02621 2872 ft 226 kts 174°
2026-05-08 01:38 38.77671 -77.02315 3531 ft 243 kts 173°
2026-05-08 01:39 38.76088 -77.01516 4250 ft 258 kts 140°
2026-05-08 01:39 38.75077 -76.99549 4907 ft 273 kts 103°
2026-05-08 01:39 38.75011 -76.97065 5550 ft 283 kts 83°
2026-05-08 01:39 38.75104 -76.94504 6337 ft 292 kts 83°
2026-05-08 01:40 38.75653 -76.92075 7095 ft 287 kts 51°
2026-05-08 01:40 38.77090 -76.90342 7854 ft 282 kts 27°
2026-05-08 01:40 38.78744 -76.88995 8585 ft 288 kts 26°
2026-05-08 01:40 38.80494 -76.87607 9294 ft 295 kts 25°
2026-05-08 01:41 38.82258 -76.86223 9983 ft 302 kts 25°
2026-05-08 01:41 38.84088 -76.84795 10609 ft 311 kts 25°
2026-05-08 01:41 38.85987 -76.83307 11128 ft 324 kts 28°
2026-05-08 01:41 38.87772 -76.81409 11578 ft 342 kts 37°
2026-05-08 01:42 38.89568 -76.79328 12046 ft 354 kts 38°
2026-05-08 01:42 38.91450 -76.77148 12552 ft 365 kts 38°
2026-05-08 01:42 38.93354 -76.74943 13096 ft 373 kts 38°
2026-05-08 01:42 38.95300 -76.72688 13662 ft 380 kts 38°
2026-05-08 01:43 38.97271 -76.70403 14259 ft 385 kts 38°
2026-05-08 01:43 38.99256 -76.68101 14901 ft 389 kts 38°
2026-05-08 01:43 39.01261 -76.65744 15543 ft 392 kts 41°
2026-05-08 01:43 39.03196 -76.63276 16159 ft 396 kts 41°
2026-05-08 01:44 39.05140 -76.60795 16742 ft 400 kts 41°
2026-05-08 01:44 39.07140 -76.58243 17317 ft 404 kts 41°
2026-05-08 01:44 39.09125 -76.55708 17875 ft 407 kts 41°
2026-05-08 01:44 39.11040 -76.52950 18398 ft 415 kts 56°
2026-05-08 01:45 39.12127 -76.49504 18867 ft 419 kts 81°
2026-05-08 01:45 39.12571 -76.45812 19364 ft 422 kts 84°
2026-05-08 01:45 39.12995 -76.42063 19842 ft 427 kts 84°
2026-05-08 01:45 39.13425 -76.38251 20309 ft 432 kts 84°
2026-05-08 01:46 39.13858 -76.34405 20774 ft 436 kts 85°
2026-05-08 01:46 39.14292 -76.30547 21212 ft 440 kts 85°
2026-05-08 01:46 39.14735 -76.26582 21641 ft 445 kts 85°
2026-05-08 01:46 39.15179 -76.22624 22058 ft 449 kts 85°
2026-05-08 01:47 39.15633 -76.18684 22460 ft 453 kts 85°
2026-05-08 01:47 39.16099 -76.14640 22859 ft 457 kts 85°
2026-05-08 01:47 39.16564 -76.10590 23248 ft 461 kts 85°
2026-05-08 01:48 39.17504 -76.02359 24015 ft 468 kts 85°
2026-05-08 01:48 39.17979 -75.98179 24397 ft 472 kts 85°
2026-05-08 01:48 39.18453 -75.93999 24766 ft 476 kts 85°
2026-05-08 01:48 39.19253 -75.89822 25099 ft 484 kts 66°
2026-05-08 01:49 39.21028 -75.86184 25428 ft 482 kts 43°
2026-05-08 01:49 39.23518 -75.83262 25803 ft 478 kts 34°
2026-05-08 01:49 39.26073 -75.80477 26182 ft 481 kts 34°
2026-05-08 01:49 39.28640 -75.77673 26542 ft 484 kts 34°
2026-05-08 01:50 39.31242 -75.74828 26903 ft 488 kts 34°
2026-05-08 01:50 39.33841 -75.71980 27250 ft 491 kts 34°
2026-05-08 01:50 39.36434 -75.69138 27594 ft 494 kts 34°
2026-05-08 01:50 39.39045 -75.66273 27928 ft 497 kts 33°
2026-05-08 01:51 39.41684 -75.63375 28257 ft 500 kts 33°
2026-05-08 01:51 39.44367 -75.60425 28585 ft 503 kts 33°
2026-05-08 01:51 39.47032 -75.57491 28903 ft 506 kts 33°
2026-05-08 01:51 39.49689 -75.54562 29216 ft 509 kts 33°
2026-05-08 01:52 39.52397 -75.51574 29537 ft 512 kts 33°
2026-05-08 01:52 39.55110 -75.48578 29847 ft 515 kts 33°
2026-05-08 01:52 39.57818 -75.45585 30142 ft 517 kts 33°
2026-05-08 01:52 39.60581 -75.42526 30441 ft 519 kts 33°
2026-05-08 01:53 39.63291 -75.39523 30733 ft 522 kts 33°
2026-05-08 01:53 39.66087 -75.36422 31013 ft 524 kts 33°
2026-05-08 01:53 39.68840 -75.33366 31265 ft 526 kts 34°
2026-05-08 01:53 39.71613 -75.30283 31484 ft 529 kts 33°
2026-05-08 01:54 39.74424 -75.27155 31735 ft 531 kts 33°
2026-05-08 01:54 39.77211 -75.24049 32031 ft 531 kts 33°
2026-05-08 01:54 39.79913 -75.20733 32334 ft 537 kts 42°
2026-05-08 01:54 39.82377 -75.17091 32650 ft 538 kts 43°
2026-05-08 01:55 39.84822 -75.13454 32955 ft 537 kts 43°
2026-05-08 01:55 39.87296 -75.09777 33248 ft 537 kts 43°
2026-05-08 01:55 39.89756 -75.06118 33526 ft 537 kts 43°
2026-05-08 01:55 39.92197 -75.02482 33816 ft 537 kts 43°
2026-05-08 01:56 39.94640 -74.98840 34144 ft 536 kts 43°
2026-05-08 01:56 39.97038 -74.95111 34492 ft 538 kts 49°
2026-05-08 01:56 39.99130 -74.91120 34848 ft 538 kts 52°
2026-05-08 01:56 40.01205 -74.87047 35228 ft 535 kts 52°
2026-05-08 01:57 40.03265 -74.83006 35590 ft 533 kts 52°
2026-05-08 01:57 40.05278 -74.79050 35932 ft 531 kts 52°
2026-05-08 01:57 40.07323 -74.75030 36258 ft 529 kts 52°
2026-05-08 01:57 40.09347 -74.71046 36550 ft 528 kts 52°
2026-05-08 01:58 40.11391 -74.67017 36818 ft 527 kts 53°
2026-05-08 01:58 40.13385 -74.63082 36913 ft 522 kts 53°
2026-05-08 01:58 40.17436 -74.55073 36943 ft 532 kts 53°
2026-05-08 01:59 40.22076 -74.47578 36955 ft 531 kts 36°
2026-05-08 01:59 40.27767 -74.41471 36948 ft 536 kts 32°
2026-05-08 02:00 40.33573 -74.35272 36944 ft 541 kts 32°
2026-05-08 02:00 40.39414 -74.29009 36926 ft 541 kts 33°
2026-05-08 02:01 40.45231 -74.22758 36924 ft 536 kts 33°
2026-05-08 02:01 40.50896 -74.16469 36925 ft 540 kts 39°
2026-05-08 02:02 40.55590 -74.08594 36187 ft 557 kts 55°
2026-05-08 02:02 40.57385 -74.04131 35608 ft 557 kts 65°
2026-05-08 02:02 40.58720 -73.99329 34971 ft 559 kts 75°
2026-05-08 02:03 40.59562 -73.94358 34360 ft 561 kts 80°
2026-05-08 02:03 40.60498 -73.89409 33746 ft 567 kts 74°
2026-05-08 02:03 40.61631 -73.84401 33125 ft 569 kts 71°
2026-05-08 02:03 40.63100 -73.79594 32507 ft 567 kts 62°
2026-05-08 02:04 40.65011 -73.75088 31868 ft 564 kts 54°
2026-05-08 02:04 40.67294 -73.70959 31246 ft 552 kts 45°
2026-05-08 02:04 40.69893 -73.67315 30635 ft 542 kts 40°
2026-05-08 02:04 40.72449 -73.63722 30034 ft 538 kts 42°
2026-05-08 02:05 40.74942 -73.60104 29429 ft 532 kts 43°
2026-05-08 02:05 40.77430 -73.56461 28838 ft 526 kts 43°
2026-05-08 02:05 40.79836 -73.52928 28266 ft 521 kts 43°
2026-05-08 02:05 40.82261 -73.49363 27689 ft 516 kts 43°
2026-05-08 02:06 40.84605 -73.45912 27131 ft 510 kts 43°
2026-05-08 02:06 40.86960 -73.42440 26914 ft 502 kts 43°
2026-05-08 02:06 40.89303 -73.38985 26954 ft 505 kts 43°
2026-05-08 02:06 40.91654 -73.35511 26986 ft 508 kts 43°
2026-05-08 02:07 40.94016 -73.32018 26990 ft 510 kts 44°
2026-05-08 02:07 40.96359 -73.28548 26988 ft 510 kts 44°
2026-05-08 02:07 40.98716 -73.25055 26988 ft 510 kts 44°
2026-05-08 02:07 41.01063 -73.21571 26989 ft 510 kts 44°
2026-05-08 02:08 41.03440 -73.18039 26991 ft 510 kts 44°
2026-05-08 02:08 41.05765 -73.14580 26556 ft 511 kts 44°
2026-05-08 02:08 41.08114 -73.11082 26010 ft 504 kts 44°
2026-05-08 02:08 41.10446 -73.07604 25451 ft 497 kts 44°
2026-05-08 02:09 41.12717 -73.04213 24903 ft 490 kts 45°
2026-05-08 02:09 41.14950 -73.00877 24376 ft 484 kts 45°
2026-05-08 02:09 41.17157 -72.97575 23849 ft 480 kts 45°
2026-05-08 02:09 41.19355 -72.94284 23322 ft 475 kts 45°
2026-05-08 02:10 41.21367 -72.90794 22813 ft 473 kts 60°
2026-05-08 02:10 41.22876 -72.86997 22953 ft 471 kts 62°
2026-05-08 02:10 41.24379 -72.83109 22938 ft 473 kts 62°
2026-05-08 02:10 41.25880 -72.79193 22935 ft 475 kts 62°
2026-05-08 02:11 41.27369 -72.75300 22934 ft 475 kts 62°
2026-05-08 02:11 41.28852 -72.71416 22934 ft 475 kts 63°
2026-05-08 02:11 41.30341 -72.67509 22934 ft 475 kts 62°
2026-05-08 02:11 41.31842 -72.63565 22935 ft 475 kts 63°
2026-05-08 02:12 41.33321 -72.59677 22935 ft 475 kts 62°
2026-05-08 02:12 41.34818 -72.55732 22935 ft 475 kts 62°
2026-05-08 02:12 41.36295 -72.51838 22936 ft 475 kts 62°
2026-05-08 02:12 41.37774 -72.47932 22936 ft 475 kts 62°
2026-05-08 02:13 41.39265 -72.43989 22936 ft 475 kts 62°
2026-05-08 02:13 41.40740 -72.40083 22937 ft 475 kts 62°
2026-05-08 02:13 41.42218 -72.36163 22937 ft 475 kts 62°
2026-05-08 02:13 41.43701 -72.32225 22926 ft 475 kts 63°
2026-05-08 02:14 41.45175 -72.28306 22926 ft 475 kts 63°
2026-05-08 02:14 41.46666 -72.24336 22926 ft 475 kts 63°
2026-05-08 02:14 41.48142 -72.20388 22927 ft 475 kts 64°
2026-05-08 02:14 41.49575 -72.16481 22927 ft 475 kts 64°
2026-05-08 02:15 41.51017 -72.12543 22928 ft 475 kts 64°
2026-05-08 02:15 41.52462 -72.08594 22929 ft 475 kts 64°
2026-05-08 02:15 41.53916 -72.04610 22929 ft 475 kts 64°
2026-05-08 02:15 41.55367 -72.00633 22930 ft 476 kts 64°
2026-05-08 02:16 41.56639 -71.96615 22848 ft 477 kts 69°
2026-05-08 02:16 41.57865 -71.92480 22333 ft 474 kts 69°
2026-05-08 02:16 41.59065 -71.88459 21822 ft 467 kts 69°
2026-05-08 02:16 41.60241 -71.84502 21329 ft 456 kts 69°
2026-05-08 02:17 41.61392 -71.80611 20830 ft 446 kts 69°
2026-05-08 02:17 41.62512 -71.76818 20345 ft 435 kts 69°
2026-05-08 02:17 41.63604 -71.73115 19872 ft 426 kts 69°
2026-05-08 02:17 41.64683 -71.69450 19404 ft 416 kts 69°
2026-05-08 02:18 41.65718 -71.65931 18955 ft 408 kts 69°
2026-05-08 02:18 41.66743 -71.62444 18511 ft 402 kts 69°
2026-05-08 02:18 41.67755 -71.58990 18080 ft 399 kts 69°
2026-05-08 02:18 41.68766 -71.55538 17745 ft 396 kts 69°
2026-05-08 02:19 41.69774 -71.52096 17413 ft 398 kts 69°
2026-05-08 02:19 41.70774 -71.48671 16980 ft 396 kts 69°
2026-05-08 02:19 41.71766 -71.45270 16547 ft 392 kts 69°
2026-05-08 02:19 41.72890 -71.41982 16125 ft 388 kts 59°
2026-05-08 02:20 41.74220 -71.38872 15706 ft 386 kts 59°
2026-05-08 02:20 41.75548 -71.35768 15280 ft 383 kts 59°
2026-05-08 02:20 41.76869 -71.32679 14848 ft 380 kts 60°
2026-05-08 02:20 41.78166 -71.29640 14432 ft 377 kts 60°
2026-05-08 02:21 41.79462 -71.26602 14014 ft 370 kts 60°
2026-05-08 02:21 41.80709 -71.23675 13614 ft 361 kts 60°
2026-05-08 02:21 41.81945 -71.20768 13220 ft 354 kts 59°
2026-05-08 02:21 41.83147 -71.17943 12837 ft 348 kts 59°
2026-05-08 02:22 41.84336 -71.15143 12457 ft 345 kts 59°
2026-05-08 02:22 41.85512 -71.12375 12124 ft 340 kts 58°
2026-05-08 02:22 41.86696 -71.09639 12149 ft 338 kts 58°
2026-05-08 02:22 41.87872 -71.06920 12156 ft 341 kts 58°
2026-05-08 02:23 41.89060 -71.04170 12160 ft 343 kts 58°
2026-05-08 02:23 41.90252 -71.01408 12162 ft 343 kts 58°
2026-05-08 02:23 41.91457 -70.98611 12165 ft 343 kts 58°
2026-05-08 02:23 41.92633 -70.95882 12166 ft 343 kts 58°
2026-05-08 02:24 41.93830 -70.93101 12170 ft 343 kts 58°
2026-05-08 02:24 41.95019 -70.90337 11965 ft 344 kts 58°
2026-05-08 02:24 41.96220 -70.87540 11603 ft 340 kts 58°
2026-05-08 02:24 41.97384 -70.84828 11235 ft 334 kts 57°
2026-05-08 02:25 41.98536 -70.82140 10868 ft 328 kts 57°
2026-05-08 02:25 41.99663 -70.79509 10511 ft 323 kts 56°
2026-05-08 02:25 42.00769 -70.76939 10159 ft 318 kts 53°
2026-05-08 02:25 42.02147 -70.74658 10030 ft 308 kts 43°
2026-05-08 02:26 42.03582 -70.72509 9789 ft 310 kts 43°
2026-05-08 02:26 42.05019 -70.70355 9459 ft 309 kts 43°
2026-05-08 02:26 42.06447 -70.68215 9122 ft 305 kts 43°
2026-05-08 02:26 42.07851 -70.66110 8786 ft 300 kts 43°
2026-05-08 02:27 42.09215 -70.64062 8461 ft 296 kts 43°
2026-05-08 02:27 42.10692 -70.62160 8126 ft 285 kts 24°
2026-05-08 02:27 42.12492 -70.61380 8101 ft 271 kts
2026-05-08 02:27 42.14390 -70.60915 8124 ft 273 kts
2026-05-08 02:28 42.16256 -70.60486 8022 ft 275 kts
2026-05-08 02:28 42.18136 -70.60056 7620 ft 271 kts
2026-05-08 02:28 42.19945 -70.59647 7196 ft 257 kts
2026-05-08 02:28 42.21659 -70.59264 6806 ft 244 kts
2026-05-08 02:29 42.23299 -70.58903 6405 ft 234 kts
2026-05-08 02:29 42.24877 -70.58567 5994 ft 226 kts
2026-05-08 02:29 42.26424 -70.58245 5599 ft 219 kts
2026-05-08 02:29 42.27907 -70.57945 5261 ft 215 kts
2026-05-08 02:30 42.29371 -70.57746 4873 ft 214 kts 349°
2026-05-08 02:30 42.30848 -70.58090 4505 ft 215 kts 346°
2026-05-08 02:30 42.32328 -70.58482 4110 ft 217 kts 346°
2026-05-08 02:30 42.33804 -70.58877 3717 ft 216 kts 346°
2026-05-08 02:31 42.35243 -70.59270 3320 ft 210 kts 346°
2026-05-08 02:31 42.36620 -70.59711 3149 ft 195 kts 332°
2026-05-08 02:31 42.37503 -70.60984 3118 ft 186 kts 290°
2026-05-08 02:31 42.37916 -70.62656 3117 ft 189 kts 286°
2026-05-08 02:32 42.38310 -70.64368 3108 ft 190 kts 285°
2026-05-08 02:32 42.38702 -70.66070 3094 ft 190 kts 285°
2026-05-08 02:32 42.39074 -70.67799 3091 ft 191 kts 279°
2026-05-08 02:32 42.39247 -70.69573 3101 ft 191 kts 276°
2026-05-08 02:33 42.39427 -70.71339 3095 ft 191 kts 277°
2026-05-08 02:33 42.39618 -70.73116 3094 ft 191 kts 277°
2026-05-08 02:33 42.39816 -70.74890 3099 ft 190 kts 277°
2026-05-08 02:33 42.39900 -70.76595 3152 ft 171 kts 262°
2026-05-08 02:34 42.39651 -70.78159 3088 ft 170 kts 257°
2026-05-08 02:34 42.39384 -70.79702 2888 ft 165 kts 256°
2026-05-08 02:34 42.39134 -70.81139 2684 ft 149 kts 255°
2026-05-08 02:34 42.38910 -70.82416 2457 ft 131 kts 255°
2026-05-08 02:35 42.38714 -70.83537 2257 ft 117 kts 254°
2026-05-08 02:35 42.38525 -70.84609 2118 ft 116 kts 254°
2026-05-08 02:35 42.38337 -70.85683 1989 ft 118 kts 253°
2026-05-08 02:35 42.38146 -70.86760 1847 ft 119 kts 253°
2026-05-08 02:36 42.37954 -70.87851 1692 ft 118 kts 253°
2026-05-08 02:36 42.37763 -70.88936 1525 ft 119 kts 253°
2026-05-08 02:36 42.37571 -70.90024 1358 ft 120 kts 253°
2026-05-08 02:36 42.37381 -70.91097 1198 ft 119 kts 253°
2026-05-08 02:37 42.37181 -70.92207 1031 ft 122 kts 253°
2026-05-08 02:37 42.36971 -70.93322 863 ft 124 kts 252°
2026-05-08 02:37 42.36753 -70.94439 713 ft 125 kts 255°
2026-05-08 02:37 42.36587 -70.95591 528 ft 124 kts 256°
2026-05-08 02:38 42.36392 -70.96725 358 ft 125 kts 252°
2026-05-08 02:38 42.36175 -70.97875 197 ft 126 kts 253°
2026-05-08 02:38 42.35977 -70.99016 30 ft 124 kts 253°
2026-05-08 02:38 42.35798 -71.00026 13 ft 83 kts 258°
2026-05-08 02:39 42.35757 -71.00471 15 ft 15 kts 281°
2026-05-08 02:39 42.35777 -71.00621 15 ft 21 kts 278°
2026-05-08 02:39 42.35805 -71.00858 17 ft 30 kts 278°
2026-05-08 02:39 42.35836 -71.01179 18 ft 38 kts 277°
2026-05-08 02:40 42.35878 -71.01516 18 ft 25 kts 285°
2026-05-08 02:40 42.35910 -71.01753 18 ft 26 kts 281°
2026-05-08 02:40 42.35973 -71.01945 16 ft 20 kts 300°
2026-05-08 02:40 42.36046 -71.02111 16 ft 21 kts 301°
2026-05-08 02:41 42.36136 -71.02271 15 ft 21 kts 339°
2026-05-08 02:41 42.36228 -71.02254 15 ft 11 kts 22°
2026-05-08 02:41 42.36306 -71.02213 15 ft 10 kts 33°
2026-05-08 02:41 42.36337 -71.02182 15 ft 3 kts 37°
2026-05-08 02:42 42.36353 -71.02165 15 ft 2 kts 37°
2026-05-08 02:42 42.36355 -71.02163 15 ft 0 kts 37°